Regional Weather Roundup
Issued by NWS

Home | Current Version | Previous Version | Graphics & Text | Print | Product List | Glossary On
Versions: 1 2 3 4 5 6 7 8 9 10 11 12 13 14 15 16 17 18 19 20 21 22 23 24 25 26 27 28 29 30 31 32 33 34 35 36 37 38 39 40 41 42 43 44 45 46 47 48 49 50
000
ASUS43 KMKX 232200
RWRWI

WISCONSIN REGIONAL WEATHER ROUNDUP
NATIONAL WEATHER SERVICE MILWAUKEE/SULLIVAN WI
500 PM CDT TUE SEP 23 2014

NOTE: "FAIR" INDICATES FEW OR NO CLOUDS BELOW 12,000 FEET WITH NO
SIGNIFICANT WEATHER AND/OR OBSTRUCTIONS TO VISIBILITY.

WIZ001-002-006>008-014>016-023>028-232300-
NORTHWEST WISCONSIN

CITY           SKY/WX    TMP DP  RH WIND       PRES   REMARKS
SUPERIOR ARPT  MOSUNNY   73  54  51 S8        30.15S
ASHLAND        SUNNY     74  53  48 S7        30.18S
HAYWARD        SUNNY     71  49  45 S13       30.19F
SIREN          MOSUNNY   73  47  39 S12G17    30.17S
CUMBERLAND     PTCLDY    70  46  43 S8        30.19S
RICE LAKE      MOSUNNY   71  48  44 SE12      30.20S
CHETEK         PTCLDY    72  51  47 S8        30.19F
LADYSMITH      SUNNY     71  50  48 S8        30.23S
EAU CLAIRE     MOSUNNY   71  51  49 S10       30.19F
MENOMONIE      PTCLDY    71  52  51 SE9       30.18F
NEW RICHMOND   PTSUNNY   71  49  47 S12       30.18S
OSCEOLA        PTSUNNY   71  51  49 S8        30.19S
$$

WIZ003>005-009-010-017-018-232300-
NORTH CENTRAL WISCONSIN

CITY           SKY/WX    TMP DP  RH WIND       PRES   REMARKS
MANITOWISH WTR CLEAR     72  49  44 S5        30.22S
ARBOR VITAE    SUNNY     73  49  43 S5        30.22F
WOODRUFF       SUNNY     73  49  43 S5        30.22F
RHINELANDER    SUNNY     71  49  45 S8        30.24F
EAGLE RIVER    SUNNY     72  44  36 S5        30.22F
LAND O LAKES   SUNNY     73  46  37 SW7       30.23F
PHILLIPS       MOSUNNY   71  50  47 S9        30.21S
TOMAHAWK       SUNNY     72  49  44 CALM      30.23F
MEDFORD        SUNNY     70  50  49 SW8       30.24S
MERRILL        SUNNY     72  51  48 S6        30.23S
$$

WIZ029-030-035-036-043>047-232300-
CENTRAL WISCONSIN

CITY           SKY/WX    TMP DP  RH WIND       PRES   REMARKS
WAUSAU         SUNNY     72  51  47 S5        30.23S
MOSINEE        SUNNY     72  54  53 S7        30.25S
MARSHFIELD     SUNNY     72  50  45 S7        30.23S
STEVENS POINT  SUNNY     71  50  46 S9        30.24F
WAUPACA        SUNNY     76  51  40 SE6       30.24F
WAUTOMA        NOT AVBL
WISC RAPIDS    SUNNY     72  49  44 SW7       30.25S
CAMP DOUGLAS   NOT AVBL
$$

WIZ011>013-019>022-031-037>040-048>050-232300-
NORTHEAST WISCONSIN

CITY           SKY/WX    TMP DP  RH WIND       PRES   REMARKS
ANTIGO         SUNNY     70  50  48 S7        30.25S
SHAWANO        CLEAR     75  50  41 SW3       30.24S
OCONTO         CLEAR     71  55  55 S7        30.24R
STURGEON BAY   SUNNY     66  54  63 S10       30.26S
GREEN BAY      SUNNY     73  54  51 S7        30.24F
MANITOWOC      NOT AVBL
APPLETON       MOSUNNY   72  52  49 SE7       30.25F
CLINTONVILLE   SUNNY     73  48  40 SW7       30.23F
OSHKOSH        SUNNY     74  53  48 S3        30.24F
$$

WIZ032>034-041-042-053>061-232300-
SOUTHWEST WISCONSIN

CITY           SKY/WX    TMP DP  RH WIND       PRES   REMARKS
LA CROSSE      MOSUNNY   75  50  41 S14       30.20F
SPARTA         MOSUNNY   71  48  44 S8        30.24S
VIROQUA        PTCLDY    72  48  42 S8        30.24S
BOSCOBEL       SUNNY     75  48  38 VRB6      30.23F
PRAIRIE DU CHI SUNNY     73  43  34 SE6       30.22F
PLATTEVILLE    MOSUNNY   72  47  41 SE8       30.25F
$$

WIZ056-057-062-063-064-067-068-232300-
SOUTH CENTRAL WISCONSIN

CITY           SKY/WX    TMP DP  RH WIND       PRES   REMARKS
REEDSBURG      CLEAR     71  52  52 SW8       30.24F
BARABOO/DELLS  SUNNY     71  45  38 SW6       30.25S
LONE ROCK      NOT AVBL
MINERAL POINT  SUNNY     73  45  35 SE7       30.25F
MADISON        MOSUNNY   72  47  40 S9        30.25F
MIDDLETON      CLEAR     74  44  34 SW3       30.25F
WATERTOWN      SUNNY     73  49  43 SW7       30.26S
MONROE         MOSUNNY   72  48  43 SE8       30.26S
JANESVILLE     SUNNY     73  46  38 SE9       30.26F
$$

WIZ051-052-058>065-066-070>072-232300-
SOUTHEAST WISCONSIN

CITY           SKY/WX    TMP DP  RH WIND       PRES   REMARKS
MILWAUKEE      MOSUNNY   69  51  52 SE10      30.27S
WAUKESHA       SUNNY     70  48  46 SW9       30.28S
MILWAUKEE/TIMM SUNNY     73  43  33 CALM      30.26F
RACINE         SUNNY     68  49  50 S10       30.29S
BURLINGTON     SUNNY     72  46  39 S3        30.27S
KENOSHA        SUNNY     69  51  52 SE12      30.28S
FOND DU LAC    SUNNY     73  50  44 SW5       30.25F
SHEBOYGAN      SUNNY     70  52  52 S9        30.26S
WEST BEND      SUNNY     73  46  38 S3        30.26S
JUNEAU         SUNNY     72  49  44 S3        30.27S
$$

LSZ147-162-232300-
LAKE SUPERIOR

STATION/POSITION TIME  TEMP    WIND        PRES    WAVE
                       AIR SEA DIR/SP/G            HT/PER
                 (UTC) (F)     (DEG/KT/KT) (MB)    (FT/S)
W MID LAKE BUOY  2050   57 51  290/  2/  4 1022.3F   1
DEVILS ISLAND    2100   62      70/  3/  3 1021.9F
PORT WING        2140   65      30/  7/  9 1021.0F
SAXON HARBOR     2100   65      CALM  /  3 1021.7F
$$

LMZ867-665-643>646-232300-
LAKE MICHIGAN

STATION/POSITION TIME  TEMP    WIND        PRES    WAVE
                       AIR SEA DIR/SP/G            HT/PER
                 (UTC) (F)     (DEG/KT/KT) (MB)    (FT/S)
CHAMBERS ISLAND  2100   69     180/  4/ 11 1024.0F
S GREEN BAY BUOY 2100   65                 1025.1F
N MID LAKE BUOY  2050   59 58  200/ 10/ 12 1024.6F   1/ 3
NORTHPORT PIER   2100   68     150/  7/  9 1023.7F
SISTER BAY       2027          220/  9/ 12   N/A
KEWAUNEE LAKESHO 2100   56     180/  9/ 10 1023.9
SHEBOYGAN LAKESH 2100   61 53  180/ 16/ 16 1025.1F
PORT WASHINGTON  2100   67     190/  4/  6 1025.4
ATWATER BUOY     2100   61     150/ 10/ 12 1025.9F
S MID LAKE BUOY  2050   62 61  180/  8/ 10 1026.3F   1/ 3
KENOSHA   LAKESH 2100   62     170/ 11/ 12 1025.1F
$$

TC  - TEMPERATURE IN CELSIUS
VSB - VISIBILITY IN STATUTE MILES
WCI - WIND CHILL INDEX
HX  - HEAT INDEX



USA.gov is the U.S. government's official web portal to all federal, state and local government web resources and services.